Погода в Тебессе

Алжир     35°24′15″N   8°07′15″E
темп.,
°C
ветер,
м/с
пор.,
м/с
влажн.,
%
обл.,
%
осадки,
мм/ч
давл.,
гПа
погр.,
м
18 апреля, вс
вс1801:00+4ююз11903 0.0 101711
04:00+4юз22843 0.0 101612
07:00+5с338592 0.1 1018277
10:00+6сз347493 0.1 1019815
13:00+10зсз564889 0.4 10171757
16:00+11ссз1094745 0.6 10171686
19:00+6ссз797111 0.7 1021616
22:00+5сз23780 0.0 1023194
19 апреля, пн
пн1901:00+4з22750 0.0 102312
04:00+3з22740 0.0 102211
07:00+5з12620 0.0 102272
10:00+10зсз56370 0.0 10211190
13:00+14з46265 0.0 10192002
16:00+16сз562445 0.0 10172232
19:00+13сз3436100 0.0 101746
22:00+11юз224848 0.0 101919
20 апреля, вт
вт2001:00+10ююз225048 0.0 101719
04:00+9ююз335026 0.0 101623
07:00+10ююз3546100 0.0 1016110
10:00+15юз9103992 0.1 1016866
13:00+18зюз91134100 0.1 10142451
16:00+17з7943100 0.0 10131960
19:00+14зюз2355100 0.1 101480
22:00+12в116699 0.4 101649
21 апреля, ср
ср2101:00+10ююв22621 0.4 101613
04:00+9зюз117161 0.0 101510
07:00+12ююз116353 0.0 101519
10:00+18зюз373683 0.0 10151639
13:00+21юз692377 0.0 10133021
16:00+22юз7623100 0.0 10112964
19:00+17ссз1241100 0.0 101330
22:00+13св2267100 0.0 101530
22 апреля, чт
чт2201:00+12вюв2268100 0.0 101516
04:00+11юв2269100 0.0 101517
07:00+12ююв226197 0.0 101579
10:00+18всв223793 0.0 1014623
13:00+18ссв4344100 0.0 1015793
16:00+20ссв4441100 0.1 10131173
19:00+15ссв3558100 0.1 1014213
22:00+13с2267100 0.1 101567